Location: Warwick
(41.7000°N, 71.4170°W)
Time: 22:14:26
(UTC-04:00)

OTV 5 (USA 277) - Visible Passes

Search period start: 17 October 2017 00:00
Search period end: 27 October 2017 00:00
Orbit: 404 x 417 km, 43.0° (Epoch: 07 September)

Date Brightness Start Highest point End Pass type
(mag) Time Alt. Az. Time Alt. Az. Time Alt. Az.
17 Oct ? 18:40:01 10° W 18:43:22 68° N 18:46:17 13° E visible
17 Oct ? 20:17:23 10° W 20:19:02 26° W 20:19:02 26° W visible
18 Oct ? 19:26:18 10° WNW 19:29:42 87° S 19:30:20 56° ESE visible
19 Oct ? 18:35:13 10° WNW 18:38:36 79° N 18:41:42 12° E visible
19 Oct ? 20:12:40 10° W 20:14:27 25° WSW 20:14:27 25° WSW visible
20 Oct ? 19:21:31 10° W 19:24:48 50° SSW 19:25:53 34° SSE visible
21 Oct ? 18:30:24 10° W 18:33:46 69° SSW 18:37:08 10° ESE visible
21 Oct ? 20:08:24 10° WSW 20:10:11 17° SW 20:10:11 17° SW visible
22 Oct ? 19:16:57 10° W 19:19:47 25° SSW 19:21:50 15° SSE visible
23 Oct ? 18:25:42 10° W 18:28:49 35° SSW 18:31:57 10° SE visible
24 Oct ? 19:13:27 10° WSW 19:14:37 11° SW 19:15:48 10° SSW visible
25 Oct ? 18:21:26 10° WSW 18:23:44 17° SW 18:26:02 10° S visible
